Regional Weather Roundup
Issued by NWS

Home | Current Version | Previous Version | Text Only | Print | Product List | Glossary Off
Versions: 1 2 3 4 5 6 7 8 9 10 11 12 13 14 15 16 17 18 19 20 21 22 23 24 25 26 27

000
ASUS45 KBOI 260110
RWRID

IDAHO REGIONAL WEATHER ROUNDUP
NATIONAL WEATHER SERVICE BOISE ID
600 PM MST SAT FEB 25 2017

NOTE: "FAIR" INDICATES FEW OR NO CLOUDS BELOW 12000 FEET
WITH NO SIGNIFICANT WEATHER AND/OR OBSTRUCTIONS TO VISIBILITY

IDZ012-014-260200-
SOUTHWEST IDAHO


CITY           SKY/WX    TMP DP  RH WIND       PRES   REMARKS
BOISE          CLEAR     37  14  38 N3        30.01F
CALDWELL       CLEAR     40  15  36 E5        30.02F
MOUNTAIN HOME  CLEAR     37  14  39 NW8       30.02F WCI  31
$$

IDZ016-017-260200-
SOUTHCENTRAL IDAHO


CITY           SKY/WX    TMP DP  RH WIND       PRES   REMARKS
BURLEY         MIX PCPN  29  13  51 W12       29.98F WCI  19
JEROME           N/A    N/A N/A N/A MISG      30.00F
TWIN FALLS     CLEAR     24  13  62 SW8       30.00F WCI  15
$$

IDZ019>023-260200-
SOUTHEAST IDAHO


CITY           SKY/WX    TMP DP  RH WIND       PRES   REMARKS
IDAHO FALLS    PTCLDY    18  11  74 SW18      29.93F WCI   2
POCATELLO      PTCLDY    19  13  77 SW10      29.98F WCI   7
REXBURG        CLEAR     18   9  68 SW9       29.91F WCI   7
$$

IDZ006-010-011-018-031-032-260200-
CENTRAL IDAHO MOUNTAINS


CITY           SKY/WX    TMP DP  RH WIND       PRES   REMARKS
MCCALL         CLOUDY    24  11  57 S9        29.89F WCI  14
HAILEY         PTCLDY    21  14  73 SW12G24   29.91F WCI   9
STANLEY          N/A     15   8  73 CALM      29.86F
SALMON         CLOUDY    30  10  43 W6        29.88S WCI  24
CHALLIS        PTCLDY    25   8  48 W7        29.86S WCI  17
$$

IDZ002-004-006-007-026-260200-
NORTHERN IDAHO


CITY           SKY/WX    TMP DP  RH WIND       PRES   REMARKS
LEWISTON       CLOUDY    40  21  46 VRB3      29.98F
LOWELL           N/A     34  28  79 CALM      30.04S
COEUR D`ALENE  NOT AVBL
MULLAN PASS    LGT SNOW  14  13  95 VRB5      29.74S VSB 1   WCI   6
$$




USA.gov is the U.S. government's official web portal to all federal, state and local government web resources and services.